Weather Roundup
Issued by NWS

Home | Current Version | Previous Version | Graphics & Text | Print | Product List | Glossary Off
Versions: 1 2 3 4 5 6 7 8 9 10 11 12 13 14 15 16 17 18 19 20 21 22 23 24 25 26 27 28 29 30 31 32 33 34 35 36 37 38 39 40 41 42 43 44 45 46 47 48 49 50

000
NZUS93 KARX 162159
HRRWXR

CURRENT HOURLY OBSERVATIONS ACROSS
MUCH OF THE UPPER MISSISSIPPI VALLEY
NATIONAL WEATHER SERVICE LA CROSSE WI
500 PM CDT WED APR 16 2014


...SOUTHEAST MINNESOTA...


CITY           SKY/WX    TMP DP  RH WIND       PRES   REMARKS
ROCHESTER      CLOUDY    51  34  52 SE21G29   29.81S
ROCHESTER/MAYO CLOUDY    52  30  42 SE14G31   29.81F
WINONA         CLOUDY    54  30  40 S15G23    29.87F
AUSTIN         CLOUDY    52  36  54 S12G17    29.78S
ALBERT LEA     DRIZZLE   54  34  47 S6        29.76S
DODGE CENTER   CLOUDY    52  36  54 SE15      29.79F
PRESTON        CLOUDY    52  33  47 S16G24    29.84R
OWATONNA       DRIZZLE   52  36  54 S18G25    29.78R
FARIBAULT      DRIZZLE   43  36  75 NW9       29.80R
$$

...ELSEWHERE IN MINNESOTA...


CITY           SKY/WX    TMP DP  RH WIND       PRES   REMARKS
MINNEAPOLIS    LGT SNOW  32  32 100 NE14      29.89S VSB 1   WCI  22
INTNL FALLS    PTSUNNY   36   3  25 E14       30.19S WCI  27
DULUTH         SNOW      26  22  84 E20G31    30.10R VSB 1/2 WCI  12
RED WING       LGT RAIN  48  37  66 S12G17    29.83S
REDWOOD FALLS  LGT SNOW  32  30  92 NE14G23   29.85S VSB 3/4 WCI  22
MANKATO        CLOUDY    39  32  75 NE20G26   29.79S WCI  30
WORTHINGTON    CLOUDY    37  30  75 N18       29.78R WCI  27
FAIRMONT       CLOUDY    45  34  65 N21       29.75S
$$

...SOUTHWEST WISCONSIN...


CITY           SKY/WX    TMP DP  RH WIND       PRES   REMARKS
LA CROSSE      CLOUDY    54  28  36 S10       29.90R
PRAIRIE DU CHI CLOUDY    55  25  32 SE15G24   29.91F
BOSCOBEL       CLOUDY    55  26  32 VRB5      29.95F
LONE ROCK      NOT AVBL
PLATTEVILLE    PTSUNNY   51  29  42 SE24G30   29.97F
FORT MC COY    CLOUDY    51  26  37 SE15G28   29.94F
VIROQUA        FAIR      50  29  44 SE22G35   29.91F
WIS DELLS      PTSUNNY   49  29  46 S23G35    30.00F
$$

...ELSEWHERE IN WISCONSIN...


CITY           SKY/WX    TMP DP  RH WIND       PRES   REMARKS
MILWAUKEE      PTSUNNY   42  26  53 SE24G33   30.17F
MADISON        CLOUDY    51  30  44 S28G36    30.04F
GREEN BAY      CLOUDY    37  26  64 SE13      30.19F WCI  29
EAU CLAIRE     NOT AVBL
BLACK RVR FLS    N/A     50  26  40 SE8G20    29.94S
MEDFORD        CLOUDY    36  28  73 E13       29.99F WCI  27
WAUSAU         CLOUDY    38  28  67 SE16      30.03F WCI  29
WIS RAPIDS     CLOUDY    45  29  53 SE12G25   30.02S
MARSHFIELD     CLOUDY    44  30  57 SE20G28   29.97F
RICE LAKE      CLOUDY    37  27  68 E13G21    29.97F WCI  29
$$

...NORTHEAST IOWA...


CITY           SKY/WX    TMP DP  RH WIND       PRES   REMARKS
WATERLOO       CLOUDY    58  29  33 S30G38    29.82S
DUBUQUE        CLOUDY    52  27  38 S26G37    29.95F
DECORAH        CLOUDY    54  30  40 S17G29    29.85S
MASON CITY     CLOUDY    56  35  45 S22G29    29.76S
CHARLES CITY   CLOUDY    55  34  44 S26G38    29.81R
OELWEIN        CLOUDY   N/A N/A N/A S29G38    29.85S
$$

...ELSEWHERE IN IOWA...


CITY           SKY/WX    TMP DP  RH WIND       PRES   REMARKS
DES MOINES     CLOUDY    63  31  30 SW30G37   29.78F
IOWA CITY      CLOUDY    56  29  35 S26G35    29.91F
FORT DODGE     CLOUDY    59  34  38 S18G31    29.71F
MARSHALLTOWN   CLOUDY    58  33  39 S20G35    29.79S
CEDAR RAPIDS   CLOUDY    57  28  33 S22G37    29.87F
$$

...NORTHERN ILLINOIS...


CITY           SKY/WX    TMP DP  RH WIND       PRES   REMARKS
CHICAGO-OHARE  PTSUNNY   52  24  33 SE22G30   30.14F
DUPAGE         MOSUNNY   53  25  33 S20G32    30.12F
CHICAGO-MIDWAY PTSUNNY   51  23  33 SE20G29   30.16F
MOLINE         MOSUNNY   56  24  29 SE17G35   29.98F
ROCKFORD       PTSUNNY   53  28  38 S25G32    30.09F
STERLING       MOSUNNY   55  28  35 S13G22    30.04F
PEORIA         SUNNY     56  26  31 S24G37    30.06F
$$

NOTE: "FAIR" INDICATES FEW OR NO CLOUDS BELOW 12,000 FEET WITH NO
SIGNIFICANT WEATHER AND/OR OBSTRUCTIONS TO VISIBILITY. WIND
SPEEDS ARE IN MILES-PER-HOUR.



USA.gov is the U.S. government's official web portal to all federal, state and local government web resources and services.